User: anonymous   Login
Location: Unspecified
(0.0000°N, 0.0000°E)
Time: 15:25:30
(UTC+00:00)
Language:

Metsat - Orbit

View from above orbital plane
View from above orbital plane
View from above satellite
View from above satellite

Ground track
Ground track

The orbit data is extracted from the following two-line orbital elements,

1 26382U 00032A   17228.22065201 -.00000300 +00000-0 +00000-0 0  9998
2 26382 010.0092 039.7835 0005506 230.5253 093.0897 01.00095874062622
Epoch (UTC): 16 August 2017 05:17:44
Eccentricity: 0.0005506
inclination: 10.0092°
perigee height: 35812 km
apogee height: 35859 km
right ascension of ascending node: 39.7835°
argument of perigee: 230.5253°
revolutions per day: 1.00095874
mean anomaly at epoch: 93.0897°
orbit number at epoch: 6262

The dashed part of the orbit path shows where the satellite is in the earth's shadow,  

DLR